Regional Weather Roundup
Issued by NWS

Home | Current Version | Previous Version | Graphics & Text | Print | Product List | Glossary On
Versions: 1 2 3 4 5 6 7 8 9 10 11 12 13 14 15 16 17 18 19 20 21 22 23 24 25 26 27 28 29 30 31 32 33 34 35 36 37 38 39 40 41 42 43 44 45 46 47 48 49 50
000
ASUS45 KTFX 012310
RWRMT
MONTANA REGIONAL WEATHER ROUNDUP
NATIONAL WEATHER SERVICE GREAT FALLS MT
500 PM MDT WED JUL 01 2015

NOTE: "FAIR" INDICATES FEW OR NO CLOUDS BELOW 12000 FEET WITH NO
SIGNIFICANT WEATHER AND/OR OBSTRUCTIONS TO VISIBILITY.

MTZ001>007-043-020000-
WEST OF THE DIVIDE

CITY           SKY/WX    TMP DP  RH WIND       PRES   REMARKS
KALISPELL      PTCLDY    89  45  21 VRB3      29.97F
MISSOULA       MOSUNNY   92  39  15 VRB3      29.98F
BUTTE          MOSUNNY   84  40  21 W7        30.14S
MULLAN PASS    MOSUNNY   78  44  29 VRB6      30.23S
DEER LODGE       N/A     88  39  18 N9        30.12S
EUREKA           N/A     90  48  24 SW5       29.99F
HAMILTON         N/A     90  43  19 N2        30.01F
PLAINS           N/A     94  47  20 W9        29.96F HX  90
RONAN            N/A     91  46  21 S1        30.04F
$$

MTZ008-052>055-020000-
SOUTHWEST MONTANA

CITY           SKY/WX    TMP DP  RH WIND       PRES   REMARKS
BOZEMAN        SUNNY     90  42  18 N7        30.05F
DILLON         MOSUNNY   90  46  21 NW3       30.08S
W YELLOWSTONE  MOSUNNY   82  36  18 W12       30.20S
THREE FORKS      N/A     90  42  18 E7        30.03S
TWIN BRIDGES     N/A     91  43  18 E3        30.05F
$$

MTZ009-010-012-014-046-048-049-054-020000-
EAST SLOPES AND CENTRAL MONTANA

CITY           SKY/WX    TMP DP  RH WIND       PRES   REMARKS
CUT BANK       SUNNY     78  53  41 N14       30.12S
GREAT FALLS    MOSUNNY   81  53  37 NE17G24   30.07S
MALMSTROM AFB  SUNNY     80  52  38 NE13G24   30.07R
HELENA         MOSUNNY   90  38  16 NW12      30.00F
CONRAD           N/A     76  63  64 N9        30.13R
$$

MTZ011-013-016-021-045-047-050-051-020000-
NORTH CENTRAL MONTANA

CITY           SKY/WX    TMP DP  RH WIND       PRES   REMARKS
HAVRE          SUNNY     82  56  40 NW13G23   30.02F
LEWISTOWN      PTSUNNY   73  56  54 N25G38    30.09R
CHINOOK          N/A     82  57  42 W17G23    29.99S
$$

MTZ017>020-022>027-061-062-020000-
NORTHEAST MONTANA

CITY           SKY/WX    TMP DP  RH WIND       PRES   REMARKS
GLASGOW        PTSUNNY   79  58  48 W6        29.97R HAZE
JORDAN           N/A     82  55  39 N15G23    29.99R
SIDNEY         PTSUNNY   75  61  60 N5        29.98R
WOLF POINT     CLOUDY    71  63  75 SW5       29.98R HAZE
MALTA            N/A     81  54  39 NW7       29.95F
PLENTYWOOD       N/A     75  55  50 NW5       29.97S
POPLAR           N/A     75  66  73 CALM      29.97S
SCOBEY           N/A     76  54  46 N2        29.98R
$$

MTZ028>42-056>058-020000-
SOUTHCENTRAL AND SOUTHEAST MONTANA

CITY           SKY/WX    TMP DP  RH WIND       PRES   REMARKS
BAKER          MOSUNNY   79  61  53 E7        30.00F
BILLINGS       MOSUNNY   92  46  20 N9        29.98S
LIVINGSTON     SUNNY     91  43  18 N13G22    30.05S
MILES CITY     MOSUNNY   86  60  41 E9        29.95S
EKALAKA          N/A     79  57  46 N9        30.00S
FORSYTH          N/A     88  54  31 NE7       29.94S
LAUREL           N/A     91  48  22 N5        29.97F
ROUNDUP          N/A     77  56  48 N9        29.95R
$$

REGIONAL REPORTS...DAKOTAS

CITY           SKY/WX    TMP DP  RH WIND       PRES   REMARKS
WILLISTON      MOSUNNY   77  57  50 N6        29.97S HAZE
MINOT          PTSUNNY   73  62  68 N3        29.94F
DICKINSON      SUNNY     75  59  57 CALM      29.97F
BEACH          LGT RAIN  75  63  64 CALM      30.00S
CROSBY         FAIR      73  68  83 NW3       29.97F FOG
BISMARCK       PTSUNNY   77  63  61 CALM      29.94S
GRAND FORKS    MOSUNNY   77  61  57 SW7       29.93S
FARGO          SUNNY     74  59  59 S12       29.95S
BUFFALO SD       N/A     79  60  52 N8        29.93F
RAPID CITY     SUNNY     82  66  58 N18       29.97S
$$

REGIONAL REPORTS...WYOMING/IDAHO/WASHINGTON

CITY           SKY/WX    TMP DP  RH WIND       PRES   REMARKS
GILLETTE       MOSUNNY   84  54  35 NE8       30.03F
SHERIDAN       SUNNY     89  51  27 CALM      30.01F
BUFFALO WY     SUNNY     85  53  33 N9        30.08F
CODY           SUNNY     84  50  30 N14G21    30.06S
YELLOWSTONE LA   N/A     80  37  21 NW8       30.30F
IDAHO FALLS    SUNNY     92  43  18 S8        30.05F
SALMON         SUNNY     93  45  18 N14       29.95F
BOISE          SUNNY    102  43  13 NW12G22   29.93F HX  97
SPOKANE        MOSUNNY   93  43  17 W8        29.97F
$$

REGIONAL REPORTS...ALBERTA

CITY           SKY/WX    TMP DP  RH WIND       PRES   REMARKS
EDMONTON       MOSUNNY   77  55  47 NW13G20   30.03F
CALGARY        PTSUNNY   72  54  53 N14G21    30.14F
LETHBRIDGE     MOSUNNY   77  54  44 NW15G23   30.10F
MEDICINE HAT   PTSUNNY   77  55  47 NW14G20   30.03S
WATERTON GATE    N/A     70  55  60 E3          N/A
CARDSTON         N/A     72  57  60 N8          N/A
MILK RIVER       N/A     77  50  38 N16G23      N/A
ONEFOUR          N/A     79  50  36 NW22G33     N/A
$$

REGIONAL REPORTS...SASKATCHEWAN

CITY           SKY/WX    TMP DP  RH WIND       PRES   REMARKS
SWIFT CURRENT  PTSUNNY   68  59  73 S15G22    29.99S
REGINA         CLOUDY    73  63  68 NW7       29.95F SMOKE
SASKATOON      PTSUNNY   73  59  60 W5        29.96F
CYPRESS HILLS    N/A     66  57  72 N7          N/A
VAL MARIE        N/A     66  59  77 N6          N/A
ROCKGLEN         N/A     73  54  49 NW8         N/A
$$


USA.gov is the U.S. government's official web portal to all federal, state and local government web resources and services.